Location: Sternwarte ZA, Rosenfeld-Brittheim
(48.2889°N, 8.6789°E)
Time: 08:18:59
(UTC+02:00)

ISS - Pass Details

Date: 17 May 2021
Orbit: 417 x 422 km, 51.6° (Epoch: 18 June)

Event Time Altitude Azimuth Distance (km) Brightness Sun altitude
Rises 22:02:07 0° 233° (SW) 2,355 0.2 -8.9°
Reaches altitude 10° 22:04:14 10° 229° (SW) 1,495 -0.9 -9.1°
Maximum altitude 22:07:31 56° 151° (SSE) 505 -3.7 -9.5°
Drops below altitude 10° 22:10:50 10° 72° (ENE) 1,505 -1.2 -9.9°
Sets 22:12:58 0° 68° (ENE) 2,373 -0.2 -10.2°
